Regional Weather Roundup
Issued by NWS

Home | Current Version | Previous Version | Graphics & Text | Print | Product List | Glossary On
Versions: 1 2 3 4 5 6 7 8 9 10 11 12 13 14 15 16 17 18 19 20 21 22 23 24 25 26 27 28 29 30 31 32 33 34 35 36 37 38 39 40 41 42 43 44 45 46 47 48 49 50
000
ASUS44 KMEG 171710
RWRTN
TENNESSEE HOURLY STATE WEATHER ROUNDUP
NATIONAL WEATHER SERVICE MEMPHIS TN
1200 PM CDT TUE OCT 17 2017

TNZ002-004-019-021-049-052-054-088>092-171800-
WEST TENNESSEE

CITY           SKY/WX    TMP DP  RH WIND       PRES   REMARKS
MEMPHIS INTL   MOSUNNY   66  43  43 CALM      30.33F
NWS MEMPHIS      N/A     65 N/A N/A MISG        N/A
JACKSON        SUNNY     65  43  44 VRB3      30.34F
DYERSBURG      SUNNY     64  43  46 E6        30.36
COVINGTON      SUNNY     64  41  42 CALM      30.35F
UNION CITY     SUNNY     63  39  42 SE5       30.35F
BOLIVAR        SUNNY     64  45  48 CALM      30.33F
PARIS          SUNNY     63  43  48 VRB7      30.34F
HUNTINGDON     SUNNY     64  43  45 VRB6      30.34F
LEXINGTON      SUNNY     64  43  45 S7        30.34F
SELMER         SUNNY     63  45  51 CALM      30.33F
SAVANNAH       SUNNY     66  41  39 VRB5G12   30.32F
$$

TNZ008-025-027-028-033-062-065-066-171800-
NORTH MIDDLE TENNESSEE

CITY           SKY/WX    TMP DP  RH WIND       PRES   REMARKS
NASHVILLE      MOSUNNY   64  39  39 NE6       30.36F
PORTLAND       SUNNY     63  39  42 NE6       30.35F HAZE
CLARKSVILLE    SUNNY     63  39  41 MISG      30.36F
SMYRNA         SUNNY     64  42  44 VRB5      30.36
COOKEVILLE     SUNNY     63  41  45 E5        30.35F
GALLATIN       SUNNY     63  39  42 VRB6      30.38F
CROSSVILLE     SUNNY     58  37  45 NE5       30.36F
$$

TNZ061-075-076-078-094-096-097-171800-
SOUTH MIDDLE TENNESSEE

CITY           SKY/WX    TMP DP  RH WIND       PRES   REMARKS
FAYETTEVILLE   SUNNY     63  43  48 CALM      30.33F
TULLAHOMA      SUNNY     63  37  39 E5        30.35F
WINCHESTER     SUNNY     64  39  39 S5        30.34F
COLUMBIA       SUNNY     63  41  45 CALM      30.32F
SHELBYVILLE    SUNNY     63  41  45 SW5       30.34F
$$

TNZ017-018-042-046-047-171800-
NORTHEAST TENNESSEE

CITY           SKY/WX    TMP DP  RH WIND       PRES   REMARKS
TRI CITIES     SUNNY     59  39  47 CALM      30.36F
ELIZABETHTON   SUNNY     59  39  47 VRB3      30.35F
$$

TNZ012-013-036-069-073-074-171800-
CENTRAL EAST TENNESSEE

CITY           SKY/WX    TMP DP  RH WIND       PRES   REMARKS
KNOXVILLE      SUNNY     61  43  51 NE10      30.35F
OAK RIDGE      SUNNY     62  43  49 VRB3      30.38
DOWNTOWN KNOXV SUNNY     63  43  48 SE7       30.37F
GATLINBURG     SUNNY     59  43  55 CALM      30.36F
MORRISTOWN     SUNNY     59  39  47 VRB3      30.36F
JACKSBORO      SUNNY     61  39  44 VRB5      30.40F
$$

TNZ083-085-099-171800-
SOUTHEAST TENNESSEE

CITY           SKY/WX    TMP DP  RH WIND       PRES   REMARKS
CHATTANOOGA    SUNNY     62  40  44 CALM      30.35F
DAYTON         SUNNY     63  46  55 VRB5G14   30.35F
$$

SKY/WX REPORTED AS FAIR MEANS FEW OR NO CLOUDS BELOW
12 THOUSAND FEET.





USA.gov is the U.S. government's official web portal to all federal, state and local government web resources and services.